Location: Bourun
(47.5807°N, 1.9395°W)
Time: 21:12:32
(UTC+00:00)

Daily predictions for brighter satellites

Satellite Brightness Start Highest point End
(mag) Time Altitude Azimuth Time Altitude Azimuth Time Altitude Azimuth
SL-16 R/B 2.9 20:37:36 10° SW 20:43:12 60° WNW 20:48:51 10° NNE
Spot 2 Rocket 3.8 20:40:33 10° SSE 20:45:31 55° ENE 20:50:31 10° N
Cosmos 1602 Rocket 3.8 20:42:01 10° SSW 20:46:26 78° W 20:50:55 10° N
IGS 5A 3.9 20:43:17 10° SE 20:47:16 47° ENE 20:51:17 10° N
ATLAS 5 CENTAUR R/B 1.5 20:47:05 10° SSW 20:51:09 62° SE 20:55:43 10° NE
Meteor 2-10 Rocket 3.7 20:47:28 10° NNW 20:52:35 76° W 20:57:51 10° S
Cosmos 2278 Rocket 3.7 20:48:13 10° N 20:52:55 26° NE 20:57:35 10° ESE
Cosmos 1844 Rocket 2.7 20:49:58 10° NNW 20:55:35 89° WSW 21:01:10 10° SSE
Cosmos 1709 Rocket 4.3 20:51:16 10° SSE 20:57:19 53° E 21:03:29 10° NNE
Nadezhda 1 Rocket 4.2 20:50:55 10° N 20:57:21 82° W 21:03:43 10° S
USA 267 4.2 20:52:46 10° E 20:58:58 47° NNE 21:05:12 10° NW
SPOT 1/Viking Rocket 3.7 21:01:06 10° SSE 21:06:10 65° ENE 21:11:18 10° N
Cosmos-2242 3.0 21:02:48 10° N 21:07:10 80° E 21:11:32 10° SSE
Cosmos 1400 Rocket 2.8 21:03:51 10° N 21:07:52 84° ENE 21:11:47 10° SSE
Cosmos 2221 4.1 21:08:31 10° NNE 21:12:00 22° ENE 21:15:14 11° ESE
Lacrosse 5 rocket 3.8 21:09:29 10° WNW 21:12:57 23° N 21:16:16 10° NE
Resurs 01 Rocket 2.9 21:11:27 10° SSW 21:15:33 38° W 21:19:42 10° NNW
Terra 2.7 21:14:58 12° SE 21:18:58 37° ENE 21:23:22 10° N
SAR-Lupe-2 3.8 21:15:47 10° NNE 21:19:17 50° E 21:22:47 10° S
CZ-4B DEB 4.4 21:23:34 14° SSE 21:26:22 74° ENE 21:29:44 10° N
Cosmos 2322 Rocket 4.0 21:24:52 10° WSW 21:29:57 35° NW 21:35:06 10° NNE
Cosmos 1455 3.9 21:27:13 10° NNW 21:30:39 31° W 21:34:05 10° SSW
Alouette 2 Rocket 4.0 21:27:48 10° NNW 21:31:38 64° WSW 21:36:50 10° S
Cosmos 1758 Rocket 4.4 21:27:45 10° SSW 21:32:09 54° WNW 21:36:35 10° N
USA 245 4.1 21:32:37 10° S 21:35:52 46° W 21:39:58 10° NNW
Cosmos 1328 4.5 21:31:58 10° SSW 21:35:52 55° WNW 21:39:47 10° N
NOSS 3-3 (A) 3.9 21:32:36 10° SSW 21:38:20 62° ESE 21:44:49 10° NE
NOSS 3-3 (C) 3.9 21:32:43 10° SSW 21:38:27 61° ESE 21:44:56 10° NE
Cosmos 1538 Rocket 4.0 21:40:35 10° SSW 21:45:55 72° ESE 21:51:15 10° NNE
COSMOS 2428 2.6 21:46:51 10° SSW 21:52:30 76° ESE 21:58:12 10° NNE
Cosmos 2084 3.5 21:48:43 10° NW 21:53:11 76° SW 21:56:03 21° SSE
Cosmos 2322 4.1 21:49:37 10° SW 21:55:18 67° WNW 22:01:02 10° NNE
Cosmos 1953 Rocket 4.2 21:51:11 10° SSW 21:55:26 55° WNW 21:59:42 10° N
ATLAS 2AS CENTAUR R/B 3.4 21:48:45 10° NW 21:56:17 54° NE 22:02:39 12° ESE
Cosmos 2181 Rocket 4.2 21:50:10 10° NNW 21:56:31 75° W 22:02:01 14° S
DELTA 2 R/B (1) 4.4 21:52:08 10° SW 21:56:48 28° SSE 22:01:15 11° ESE
ATLAS CENTAUR R/B 1.2 21:55:21 10° NW 21:58:59 60° WSW 22:00:56 25° SSE
Cosmos 2074 Rocket 4.1 21:54:31 15° S 21:59:35 62° E 22:05:42 10° NNE
Cosmos 1869 3.4 21:56:20 10° N 22:00:17 62° ENE 22:02:34 24° SSE
BREEZE-M DEB (TANK) 2.5 21:54:31 10° W 22:00:37 65° N 22:03:17 10° E
ERS-1 Rocket 3.3 21:56:48 15° S 22:00:59 61° WSW 22:06:00 10° NNW
Genesis I 4.4 22:00:57 23° SE 22:01:27 23° ESE 22:04:35 10° ENE
Cosmos 2237 Rocket 2.8 21:59:40 18° SSE 22:03:17 39° ESE 22:08:32 10° NE
Cosmos 1842 Rocket 3.5 21:59:30 10° N 22:03:52 84° E 22:06:34 23° SSE
Cosmos 2219 Rocket 2.3 21:58:29 10° SSW 22:04:04 81° WNW 22:09:44 10° NNE
Meteor 1-27 4.5 22:00:17 10° NNW 22:05:59 69° W 22:10:38 16° S
SPOT 5 3.2 22:02:26 16° S 22:06:21 62° WSW 22:11:07 10° NNW
Cosmos 2360 Rocket 4.0 22:02:03 10° WSW 22:07:09 34° NW 22:12:17 10° NNE
USA 215 3.2 22:02:16 10° NE 22:08:51 70° SE 22:15:22 10° SW
Cosmos 2344 4.1 22:05:02 16° S 22:10:13 36° ESE 22:17:08 10° NE
Cosmos 158 Rocket 4.5 22:09:32 23° SSE 22:11:50 36° ESE 22:16:19 10° NE
Gblst 52 Del rocket 4.3 22:07:04 10° WNW 22:12:45 70° SSW 22:17:16 20° SE
Atlas Centaur 2 4.1 22:13:46 10° SW 22:17:08 15° S 22:17:13 15° S
Cosmos 2333 Rocket 2.7 22:12:41 10° SW 22:18:19 61° WNW 22:24:01 10° NNE
GEOS 3 Rocket 4.3 22:13:35 10° NE 22:18:54 60° NW 22:24:11 10° WSW
ALOS 2 4.5 22:18:57 13° ESE 22:21:28 20° ENE 22:24:38 10° NNE
Cosmos 1315 Rocket 3.9 22:18:55 10° NNW 22:22:46 40° W 22:25:29 17° SSW
Cosmos 967 Rocket 4.5 22:18:49 10° SSW 22:25:16 77° ESE 22:31:46 10° NE
Cosmos 1892 2.6 22:26:26 32° S 22:28:05 72° E 22:31:53 10° NNE
NOSS 0 Rocket 3.9 22:22:19 11° SSW 22:28:17 75° ESE 22:34:28 10° NNE
Cosmos 2056 Rocket 4.1 22:23:56 10° NNW 22:29:13 50° ENE 22:32:26 22° SE
EO 1 Del DPAF 4.3 22:25:57 10° NE 22:29:15 28° E 22:29:55 26° ESE
Meteor 2-2 Rocket 4.4 22:26:26 10° NNW 22:32:14 72° W 22:35:55 23° S
BREEZE-M DEB 4.4 22:28:28 10° WNW 22:32:38 68° SSW 22:49:26 10° SE
MTI 3.7 22:30:39 10° N 22:33:44 73° WNW 22:34:54 34° SSW
Cosmos 1606 4.3 22:32:51 10° NNE 22:36:02 24° ENE 22:37:25 19° ESE
ATLAS 5 CENTAUR R/B 4.0 22:32:31 10° W 22:36:12 26° NNW 22:40:19 10° NNE
Cosmos 2278 Rocket 2.3 22:31:52 10° NNW 22:37:31 67° WSW 22:40:40 27° S
Cosmos 1408 2.6 22:37:56 41° SSE 22:38:54 57° E 22:42:25 10° NNE
Cosmos 1943 Rocket 3.9 22:35:51 10° N 22:40:33 26° NE 22:45:12 10° ESE
Cosmos 44 4.0 22:40:50 26° ESE 22:41:03 27° ESE 22:44:44 10° ENE
Cosmos 1610 Rocket 4.5 22:36:57 22° S 22:41:15 82° E 22:47:39 10° N
USA 267 3.2 22:36:39 19° SE 22:41:42 88° SW 22:48:18 10° NW
Cosmos 1680 Rocket 3.5 22:39:45 22° SSW 22:43:14 76° ESE 22:48:35 10° NNE
SL-16 R/B 3.0 22:46:35 27° SE 22:48:25 33° ESE 22:53:27 10° NE
Cosmos 2221 3.6 22:45:38 10° NNW 22:49:43 39° W 22:52:05 21° SSW
CREW DRAGON DEMO-1 DEB 3.8 22:53:16 33° E 22:53:16 33° E 22:55:11 10° ENE
Lacrosse 5 rocket 3.5 22:49:44 10° NW 22:53:09 25° NNE 22:56:25 10° ENE
Terra 3.3 22:53:50 16° SW 22:56:47 29° W 23:00:55 10° NW
Cosmos 923 Rocket 4.4 22:56:41 14° SW 23:01:14 61° WNW 23:06:31 10° NNE
Cosmos 1766 Rocket 4.2 23:01:32 34° SE 23:02:44 42° E 23:06:55 10° NNE
Cosmos 1328 Rocket 4.4 23:00:33 10° N 23:04:37 39° ENE 23:06:06 29° ESE
Cosmos 2058 3.8 23:03:48 21° SW 23:06:11 44° WNW 23:10:11 10° N
Okean 3 Rocket 3.8 23:07:34 39° SSE 23:08:56 57° E 23:13:18 10° NNE
Meteor 2-3 Rocket 4.5 23:12:54 28° SE 23:15:04 39° E 23:20:19 10° NNE
TIMED 4.4 23:13:40 37° SSW 23:15:24 89° ESE 23:19:48 10° NNE
Cosmos 1825 2.2 23:14:44 45° SSW 23:15:47 77° W 23:19:36 10° N
Cosmos 1340 3.6 23:15:33 32° ESE 23:15:55 33° E 23:19:19 10° NNE
Cosmos 1624 Rocket 4.1 23:14:14 10° NNW 23:19:26 67° WSW 23:21:30 36° S
NOSS 3-4 (A) 4.0 23:12:36 10° NW 23:19:29 61° WSW 23:23:28 29° S
NOSS 3-4 (C) 4.0 23:12:42 10° NW 23:19:36 61° WSW 23:23:36 29° SSE
Cosmos 2218 Rocket 4.3 23:17:43 31° SSE 23:20:43 57° E 23:26:53 10° NNE
Aureole 2 Rocket 1.9 23:18:07 10° NNW 23:20:49 79° NW 23:20:49 79° NW
Cosmos 2366 rocket 4.2 23:21:57 31° SSE 23:24:56 58° E 23:31:09 10° NNE
BREEZE-M DEB (TANK) 4.1 23:24:28 10° W 23:27:09 17° WSW 23:27:09 17° WSW
IRIDIUM 106 4.4 23:26:31 37° SSE 23:28:32 66° E 23:33:43 10° N
Cosmos 2369 Rocket 3.3 23:24:01 10° NNW 23:29:13 37° NE 23:33:19 15° ESE
SL-4 R/B 3.1 23:33:31 19° NNE 23:33:31 19° NNE 23:34:24 10° N
Cosmos 2151 3.3 23:32:17 35° SW 23:33:53 60° WNW 23:38:07 10° N
Cosmos 1933 3.3 23:30:37 10° N 23:34:40 79° E 23:35:34 52° SSE
Helios 1A 3.6 23:34:08 33° ESE 23:35:29 46° ENE 23:39:28 10° N
COSMOS 2455 3.1 23:31:58 10° NNW 23:38:00 64° NE 23:41:47 23° SE
Genesis I 4.3 23:35:47 14° WSW 23:38:49 42° NW 23:42:34 10° NNE
Thor Agena Rocket 4.1 23:34:08 10° N 23:39:06 53° WNW 23:42:04 23° SW
DELTA 2 R/B (1) 4.1 23:37:24 10° WSW 23:42:01 36° SSW 23:42:01 36° SSW
Cosmos 2341 Rocket 4.2 23:40:08 27° SSW 23:43:39 66° W 23:49:52 10° N
ATLAS 2AS CENTAUR R/B 3.3 23:40:10 10° NW 23:47:11 45° WSW 23:50:04 30° SSW
Cosmos 2237 Rocket 3.4 23:42:01 10° WSW 23:47:21 40° NW 23:52:43 10° NNE
Cosmos 1151 Rocket 3.1 23:47:12 10° NNW 23:51:30 65° W 23:52:34 46° SSW
USA 215 4.0 23:45:24 10° NE 23:51:45 54° NNW 23:58:04 10° W
Cosmos 1782 3.2 23:48:19 10° N 23:52:11 51° ENE 23:53:04 42° ESE
Cosmos 1408 Rocket 3.5 23:52:07 49° S 23:53:16 84° E 23:57:43 10° N
